Orbital Elements
Epoch 2008 Feb. 24.0 TT = JDT 2454520.5
T 2008 Feb. 18.25513 TT MPC
q 2.1063811 (2000.0) P Q
n 0.13936148 Peri. 58.06734 +0.96009667 +0.26171533
a 3.6844631 Node 286.60108 -0.27849580 +0.86245060
e 0.4283072 Incl. 5.90478 -0.02558287 +0.43322516
P 7.07
From 760 observations 1993 Feb. 26-2010 Feb. 20, mean residual 0".8.
Nongravitational parameters A1 = +0.02, A2 = -0.0492.
|